Location: Newark
(40.7360°N, 74.1730°W)
Time: 04:01:48
(UTC-04:00)

Amateur Radio Satellites - All Passes

Search period start: 01 April 2015 03:31
Search period end: 02 April 2015 03:31
Location: Newark, 40.7360°N, 74.1730°W

Satellite Date Start Highest point End Downlink Frequencies (MHz)
Time Altitude Azimuth
RS-15 01 Apr 03:32:02 03:43:24 64° 51° (NE) 03:55:19 29.354- 29.394
ITAMSAT 1 01 Apr 03:35:35 03:40:48 82° 285° (WNW) 03:45:58 435.822/435.867
YUBILEINY 01 Apr 03:41:39 03:43:40 11° 285° (WNW) 03:44:53 435.215
AO-7 01 Apr 03:43:57 03:49:29 20° 90° (E) 03:55:25 29.400- 29.500
ISS 01 Apr 03:47:48 03:50:47 33° 28° (NNE) 03:53:46 145.825
AIST 1 01 Apr 03:54:04 03:58:18 49° 94° (E) 04:02:34
JAS-2 01 Apr 04:00:55 04:06:44 24° 87° (E) 04:12:23 435.910
Oscar 19 01 Apr 04:04:47 04:07:55 16° 297° (WNW) 04:10:51 437.125/150
O/OREOS (USA 219) 01 Apr 04:19:28 04:24:00 58° 295° (WNW) 04:28:34 437.305
PHONESAT 2.4 01 Apr 04:24:37 04:26:31 14° 148° (SSE) 04:28:30 2401.200-2431.200
AUBIESAT-1 01 Apr 04:24:54 04:28:00 21° 61° (ENE) 04:31:23 437.475
SO-50 01 Apr 04:41:39 04:45:27 22° 248° (WSW) 04:49:06 436.795
Gurwin Techsat 1B 01 Apr 04:41:52 04:46:18 26° 294° (WNW) 04:50:36 435.225
MOZHAYETS 4 01 Apr 04:45:13 04:49:50 73° 76° (ENE) 04:54:29
M-CUBED/EXP-1 PRIME 01 Apr 04:50:54 04:54:47 42° 66° (ENE) 04:59:02 437.505
HORYU 2 01 Apr 04:55:17 04:59:45 63° 286° (WNW) 05:04:12 437.375
VERMONT LUNAR 01 Apr 04:56:18 04:59:28 41° 160° (SSE) 05:02:39 437.305
CUBESAT XI-V 01 Apr 05:07:49 05:08:22 10° 62° (ENE) 05:09:12 437.345
ITAMSAT 1 01 Apr 05:18:15 05:19:34 11° 301° (WNW) 05:20:35 435.822/435.867
ISS 01 Apr 05:24:17 05:27:08 28° 225° (SW) 05:29:56 145.825
STRAND 1 01 Apr 05:26:45 05:27:39 11° 59° (ENE) 05:28:51 437.568
AIST 1 01 Apr 05:33:50 05:36:21 14° 292° (WNW) 05:38:40
AO-7 01 Apr 05:34:59 05:43:19 83° 289° (WNW) 05:51:38 29.400- 29.500
JAS-2 01 Apr 05:44:50 05:52:29 66° 288° (WNW) 05:59:25 435.910
RS-15 01 Apr 05:45:02 05:55:28 39° 251° (WSW) 06:05:59 29.354- 29.394
GONETS M04 01 Apr 05:57:22 06:05:37 43° 72° (ENE) 06:13:59
AUBIESAT-1 01 Apr 05:58:43 06:02:33 38° 259° (WSW) 06:06:42 437.475
PHONESAT 2.4 01 Apr 06:00:59 06:04:25 50° 162° (SSE) 06:07:50 2401.200-2431.200
PRISM 01 Apr 06:15:01 06:18:55 39° 71° (ENE) 06:22:53 437.425
CUTE-I 01 Apr 06:18:56 06:22:48 21° 92° (E) 06:26:49 437.470
Cubesat XI-IV 01 Apr 06:19:58 06:23:55 22° 92° (E) 06:28:01 437.490
MOZHAYETS 4 01 Apr 06:26:27 06:27:42 11° 273° (W) 06:28:38
M-CUBED/EXP-1 PRIME 01 Apr 06:27:11 06:30:00 17° 266° (W) 06:32:49 437.505
VERMONT LUNAR 01 Apr 06:33:41 06:37:03 87° 168° (SSE) 06:40:24 437.305
CUBESAT XI-V 01 Apr 06:40:28 06:45:12 89° 273° (W) 06:49:55 437.345
STRAND 1 01 Apr 07:00:58 07:06:07 81° 76° (ENE) 07:11:18 437.568
CUSAT 1 01 Apr 07:04:36 07:08:39 30° 76° (ENE) 07:13:52 437.405
AO-7 01 Apr 07:29:30 07:35:04 20° 308° (NW) 07:40:19 29.400- 29.500
JAS-2 01 Apr 07:32:20 07:36:08 14° 307° (NW) 07:39:26 435.910
PHONESAT 2.4 01 Apr 07:39:08 07:42:40 89° 181° (S) 07:46:12 2401.200-2431.200
PRISM 01 Apr 07:51:43 07:54:37 17° 268° (W) 07:57:22 437.425
GONETS M04 01 Apr 07:54:21 08:02:30 42° 272° (W) 08:10:30
CUTE-I 01 Apr 07:58:05 08:03:12 49° 289° (WNW) 08:08:16 437.470
Cubesat XI-IV 01 Apr 07:59:12 08:04:19 47° 289° (WNW) 08:09:22 437.490
BRITE-PL 01 Apr 08:07:16 08:08:20 11° 89° (E) 08:09:41 437.365/2234.400
HO-68 01 Apr 08:07:49 08:10:13 12° 85° (E) 08:13:12 435.675
VERMONT LUNAR 01 Apr 08:11:23 08:14:41 63° 193° (SSW) 08:18:01 437.305
DANDE 01 Apr 08:12:12 08:16:32 83° 262° (W) 08:22:26 436.750
GOMX 1 01 Apr 08:37:07 08:39:48 16° 92° (E) 08:42:45 467.674
CANX-2 01 Apr 08:38:31 08:40:52 15° 90° (E) 08:43:23 2200.000
STRAND 1 01 Apr 08:44:17 08:46:04 11° 273° (W) 08:47:30 437.568
CUSAT 1 01 Apr 08:47:12 08:51:25 31° 264° (W) 08:56:38 437.405
CUTE 1.7 + AOD 2 01 Apr 08:51:28 08:54:27 19° 92° (E) 08:57:33 437.475
BEESAT 3 01 Apr 09:01:41 09:04:46 21° 113° (ESE) 09:08:00 437.485
AAUSAT CUBESAT 2 01 Apr 09:04:38 09:06:59 15° 90° (E) 09:09:32 437.432
CINEMA 3 01 Apr 09:06:42 09:08:18 12° 89° (E) 09:10:11 145.822/145.860
SEEDS 01 Apr 09:15:35 09:19:17 28° 95° (E) 09:23:01 437.485
PHONESAT 2.4 01 Apr 09:17:28 09:20:57 57° 196° (SSW) 09:24:25 2401.200-2431.200
COMPASS 1 01 Apr 09:33:08 09:37:03 36° 97° (E) 09:41:00 437.405
BRITE-PL 01 Apr 09:43:08 09:47:19 61° 285° (WNW) 09:51:43 437.365/2234.400
DOVE 4 01 Apr 09:47:43 09:52:05 64° 101° (E) 09:56:43 437.250
VERMONT LUNAR 01 Apr 09:49:31 09:52:03 19° 208° (SSW) 09:54:31 437.305
HO-68 01 Apr 09:52:02 09:59:17 78° 104° (ESE) 10:06:29 435.675
Oscar 11 01 Apr 09:52:15 09:55:48 24° 94° (E) 09:59:24 145.826/435.025
UNISAT 6 01 Apr 09:52:23 09:55:40 22° 68° (ENE) 09:59:04 437.425
QB50P1 01 Apr 09:54:51 09:56:23 12° 64° (ENE) 09:58:08 145.935-145.965
DUCHIFAT 1 01 Apr 09:54:59 09:56:24 12° 64° (ENE) 09:58:01 145.980
AIST 2 01 Apr 09:57:58 10:01:27 25° 113° (ESE) 10:05:01 435.215
DELFI C3 01 Apr 09:59:40 10:02:49 22° 93° (E) 10:06:02 145.870
TIGRISAT 01 Apr 10:00:52 10:04:23 26° 69° (ENE) 10:08:02 435.000
BEESAT 2 01 Apr 10:05:04 10:09:11 89° 131° (SE) 10:13:23 435.950
FUNcube-1 01 Apr 10:09:10 10:12:23 20° 93° (E) 10:15:44 145.935
QB50P2 01 Apr 10:09:26 10:12:14 18° 67° (ENE) 10:15:09 145.880/145.840
CANX-2 01 Apr 10:12:57 10:17:08 47° 287° (WNW) 10:21:16 2200.000
GOMX 1 01 Apr 10:14:04 10:18:12 44° 287° (WNW) 10:22:31 467.674
BUGSAT 1 01 Apr 10:20:13 10:22:41 16° 67° (ENE) 10:25:17 437.445
UWE-3 01 Apr 10:21:06 10:25:09 34° 96° (E) 10:29:19 435.000/436.395/437.385
ZACube-1 01 Apr 10:22:49 10:26:38 28° 95° (E) 10:30:34 437.345
CUTE 1.7 + AOD 2 01 Apr 10:26:33 10:30:33 37° 288° (WNW) 10:34:30 437.475
ANTELSAT 01 Apr 10:32:03 10:36:14 60° 74° (ENE) 10:40:32 437.575/2403.000
CUBEBUG 2 01 Apr 10:32:31 10:36:55 55° 100° (E) 10:41:26 437.445
VELOX 1 01 Apr 10:33:25 10:33:58 10° 88° (E) 10:34:48 145.980
POPSAT HIP 1 01 Apr 10:36:22 10:40:09 33° 71° (ENE) 10:43:58 437.405
AISAT 01 Apr 10:38:19 10:40:09 13° 89° (E) 10:42:14 437.250
BEESAT 3 01 Apr 10:38:52 10:42:39 35° 309° (NW) 10:46:29 437.485
AAUSAT CUBESAT 2 01 Apr 10:38:52 10:42:56 44° 287° (WNW) 10:46:57 437.432
CINEMA 3 01 Apr 10:41:31 10:45:57 65° 285° (WNW) 10:50:34 145.822/145.860
NANOSAT C BR1 01 Apr 10:45:25 10:49:22 42° 73° (ENE) 10:53:22 145.865
HUMSAT D 01 Apr 10:48:53 10:52:29 26° 95° (E) 10:56:09 437.325/437.525
SEEDS 01 Apr 10:51:29 10:55:00 24° 291° (WNW) 10:58:26 437.485
POLYITAN 1 01 Apr 10:52:26 10:56:31 52° 74° (ENE) 11:00:38 437.675
PHONESAT 2.4 01 Apr 10:56:30 10:58:53 17° 211° (SSW) 11:01:14 2401.200-2431.200
50 SAT 01 Apr 10:59:01 11:02:07 21° 94° (E) 11:05:18 437.505
UKube-1 01 Apr 10:59:26 11:03:36 46° 99° (E) 11:07:46 .
COMPASS 1 01 Apr 11:09:26 11:12:32 19° 292° (WNW) 11:15:31 437.405
DX 1 01 Apr 11:13:48 11:18:09 73° 102° (ESE) 11:22:28 434.975-435.025
ESTCUBE 1 01 Apr 11:17:36 11:20:36 18° 91° (E) 11:23:45 437.505/2401.250
DOVE 4 01 Apr 11:27:29 11:29:30 13° 294° (WNW) 11:31:20 437.250
DUCHIFAT 1 01 Apr 11:27:36 11:31:46 63° 259° (W) 11:35:57 145.980
QB50P1 01 Apr 11:27:39 11:31:49 62° 259° (W) 11:36:00 145.935-145.965
Oscar 11 01 Apr 11:28:10 11:32:00 29° 290° (WNW) 11:35:45 145.826/435.025
UNISAT 6 01 Apr 11:28:29 11:32:19 31° 264° (W) 11:36:11 437.425
DELFI C3 01 Apr 11:34:26 11:38:01 29° 289° (WNW) 11:41:32 145.870
AIST 2 01 Apr 11:36:04 11:39:57 33° 311° (NW) 11:43:50 435.215
TIGRISAT 01 Apr 11:37:30 11:41:07 26° 266° (W) 11:44:43 435.000
HO-68 01 Apr 11:41:03 11:46:20 22° 302° (WNW) 11:51:23 435.675
QB50P2 01 Apr 11:43:55 11:47:53 39° 262° (W) 11:51:51 145.880/145.840
FUNcube-1 01 Apr 11:44:46 11:48:51 37° 288° (WNW) 11:52:58 145.935
BEESAT 2 01 Apr 11:46:08 11:48:00 12° 321° (NW) 11:49:45 435.950
BUGSAT 1 01 Apr 11:53:56 11:57:54 42° 261° (W) 12:01:49 437.445
CUBEBUG 1 01 Apr 11:57:24 12:01:30 42° 98° (E) 12:05:37 437.445
UWE-3 01 Apr 11:58:01 12:01:33 23° 291° (WNW) 12:05:04 435.000/436.395/437.385
ZACube-1 01 Apr 11:59:13 12:02:57 26° 290° (WNW) 12:06:40 437.345
Oscar 19 01 Apr 12:05:01 12:06:53 12° 61° (ENE) 12:09:01 437.125/150
VELOX 1 01 Apr 12:06:43 12:11:06 69° 285° (WNW) 12:15:28 145.980
CUBEBUG 2 01 Apr 12:10:37 12:13:15 15° 294° (WNW) 12:15:46 437.445
ANTELSAT 01 Apr 12:12:04 12:13:34 11° 272° (W) 12:14:49 437.575/2403.000
AISAT 01 Apr 12:12:52 12:17:13 57° 286° (WNW) 12:21:32 437.250
POPSAT HIP 1 01 Apr 12:13:00 12:16:09 20° 267° (W) 12:19:12 437.405
NANOSAT C BR1 01 Apr 12:22:51 12:25:29 16° 269° (W) 12:27:58 145.865
HUMSAT D 01 Apr 12:24:36 12:28:12 26° 290° (WNW) 12:31:46 437.325/437.525
POLYITAN 1 01 Apr 12:30:50 12:32:50 13° 271° (W) 12:34:37 437.675
50 SAT 01 Apr 12:33:31 12:37:03 29° 289° (WNW) 12:40:32 437.505
UKube-1 01 Apr 12:36:41 12:39:26 16° 295° (WNW) 12:42:01 .
YUBILEINY 01 Apr 12:44:41 12:51:57 32° 85° (E) 12:59:30 435.215
O/OREOS (USA 219) 01 Apr 12:50:59 12:54:47 26° 58° (ENE) 12:58:36 437.305
DX 1 01 Apr 12:52:34 12:53:53 11° 297° (WNW) 12:54:58 434.975-435.025
ESTCUBE 1 01 Apr 12:53:28 12:57:44 42° 288° (WNW) 13:01:57 437.505/2401.250
TISAT 1 01 Apr 13:07:17 13:11:24 54° 100° (E) 13:15:31 437.305
ITAMSAT 1 01 Apr 13:15:53 13:19:25 19° 64° (ENE) 13:23:06 435.822/435.867
PCSat 01 Apr 13:27:01 13:31:12 24° 108° (ESE) 13:35:32 145.827
SPROUT 01 Apr 13:29:41 13:33:58 69° 285° (WNW) 13:38:13 437.525
CUBEBUG 1 01 Apr 13:34:40 13:37:36 18° 294° (WNW) 13:40:24 437.445
Oscar 19 01 Apr 13:40:28 13:45:36 87° 256° (WSW) 13:50:46 437.125/150
SWISSCUBE 01 Apr 13:48:10 13:52:05 25° 94° (E) 13:56:04 437.505
BEESAT 01 Apr 13:50:34 13:54:26 25° 94° (E) 13:58:23 436.000
AIST 1 01 Apr 14:03:27 14:05:06 12° 67° (ENE) 14:06:59
JAS-2 01 Apr 14:15:37 14:18:06 12° 52° (NE) 14:21:06 435.910
HORYU 2 01 Apr 14:19:56 14:21:27 12° 63° (ENE) 14:23:12 437.375
Gurwin Techsat 1B 01 Apr 14:22:13 14:27:26 61° 73° (ENE) 14:32:42 435.225
O/OREOS (USA 219) 01 Apr 14:30:13 14:34:14 31° 255° (WSW) 14:38:09 437.305
ITUPSAT 1 01 Apr 14:38:57 14:43:47 76° 103° (ESE) 14:48:33 437.325
YUBILEINY 01 Apr 14:39:45 14:48:23 56° 284° (WNW) 14:57:03 435.215
AO-7 01 Apr 14:42:39 14:49:26 30° 58° (ENE) 14:56:24 29.400- 29.500
KKS-1 01 Apr 14:42:51 14:45:23 15° 91° (E) 14:48:07 437.445
TISAT 1 01 Apr 14:44:39 14:46:48 13° 295° (WNW) 14:48:47 437.305
ITAMSAT 1 01 Apr 14:53:25 14:58:32 56° 259° (W) 15:03:40 435.822/435.867
STARS 01 Apr 15:06:38 15:09:31 18° 92° (E) 15:12:34 437.465
PCSat 01 Apr 15:09:07 15:14:21 48° 305° (NW) 15:19:36 145.827
SWISSCUBE 01 Apr 15:25:42 15:30:01 33° 291° (WNW) 15:34:15 437.505
BEESAT 01 Apr 15:28:02 15:32:23 34° 290° (WNW) 15:36:38 436.000
AIST 1 01 Apr 15:39:02 15:43:15 55° 266° (W) 15:47:25
HORYU 2 01 Apr 15:53:10 15:57:35 71° 258° (WSW) 16:02:03 437.375
JAS-2 01 Apr 15:54:44 16:01:36 59° 70° (ENE) 16:09:11 435.910
Gurwin Techsat 1B 01 Apr 16:04:31 16:07:55 16° 271° (W) 16:11:07 435.225
KKS-1 01 Apr 16:18:04 16:22:22 48° 287° (WNW) 16:26:39 437.445
ITUPSAT 1 01 Apr 16:18:59 16:21:07 13° 298° (WNW) 16:23:00 437.325
AO-7 01 Apr 16:33:31 16:41:45 65° 256° (WSW) 16:50:00 29.400- 29.500
MOZHAYETS 4 01 Apr 16:41:49 16:44:54 18° 91° (E) 16:48:08
STARS 01 Apr 16:42:03 16:46:13 41° 288° (WNW) 16:50:21 437.465
YUBILEINY 01 Apr 16:46:24 16:47:51 10° 309° (NW) 16:48:33 435.215
SO-50 01 Apr 17:16:33 17:19:11 16° 110° (ESE) 17:22:04 436.795
BEESAT 3 01 Apr 17:20:53 17:23:23 16° 42° (NE) 17:25:59 437.485
CUTE-I 01 Apr 17:40:17 17:45:02 34° 68° (ENE) 17:49:52 437.470
AUBIESAT-1 01 Apr 17:40:50 17:44:08 19° 95° (E) 17:47:29 437.475
JAS-2 01 Apr 17:41:09 17:47:09 28° 271° (W) 17:53:25 435.910
Cubesat XI-IV 01 Apr 17:41:28 17:46:17 35° 69° (ENE) 17:51:10 437.490
RS-15 01 Apr 17:56:25 18:05:57 39° 109° (ESE) 18:15:50 29.354- 29.394
M-CUBED/EXP-1 PRIME 01 Apr 18:07:28 18:12:01 39° 102° (ESE) 18:16:25 437.505
MOZHAYETS 4 01 Apr 18:17:58 18:22:25 44° 288° (WNW) 18:26:47
AIST 2 01 Apr 18:19:58 18:22:59 19° 43° (NE) 18:26:04 435.215
BEESAT 2 01 Apr 18:24:57 18:28:59 49° 54° (NE) 18:32:58 435.950
AO-7 01 Apr 18:35:04 18:36:25 10° 277° (W) 18:36:56 29.400- 29.500
CUBESAT XI-V 01 Apr 18:38:17 18:41:54 23° 93° (E) 18:45:37 437.345
HO-68 01 Apr 18:39:03 18:40:28 11° 50° (NE) 18:42:21 435.675
SO-50 01 Apr 18:54:41 18:59:16 60° 306° (NW) 19:04:01 436.795
BEESAT 3 01 Apr 18:57:48 19:01:53 62° 241° (WSW) 19:05:52 437.485
GONETS M04 01 Apr 18:57:57 19:06:07 49° 90° (E) 19:14:27
STRAND 1 01 Apr 19:12:22 19:16:40 28° 94° (E) 19:21:02 437.568
AUBIESAT-1 01 Apr 19:14:34 19:19:14 49° 293° (WNW) 19:23:43 437.475
BRITE-PL 01 Apr 19:18:01 19:20:15 14° 67° (ENE) 19:22:37 437.365/2234.400
CUTE-I 01 Apr 19:20:25 19:25:09 30° 265° (W) 19:29:49 437.470
Cubesat XI-IV 01 Apr 19:21:45 19:26:27 29° 265° (W) 19:31:03 437.490
PRISM 01 Apr 19:32:58 19:37:08 67° 102° (ESE) 19:41:14 437.425
CANX-2 01 Apr 19:33:03 19:34:07 11° 64° (ENE) 19:35:25 2200.000
M-CUBED/EXP-1 PRIME 01 Apr 19:42:42 19:46:40 25° 298° (WNW) 19:50:27 437.505
CUTE 1.7 + AOD 2 01 Apr 19:45:20 19:47:24 14° 65° (ENE) 19:49:42 437.475
GOMX 1 01 Apr 19:45:55 19:48:40 17° 68° (ENE) 19:51:31 467.674
AAUSAT CUBESAT 2 01 Apr 19:57:18 19:58:09 11° 64° (ENE) 19:59:14 437.432
AIST 2 01 Apr 19:57:46 20:01:54 51° 242° (WSW) 20:05:56 435.215
BEESAT 2 01 Apr 20:04:19 20:06:46 15° 249° (WSW) 20:09:03 435.950
RS-15 01 Apr 20:07:07 20:17:53 61° 310° (NW) 20:28:53 29.354- 29.394
SEEDS 01 Apr 20:08:07 20:11:10 20° 68° (ENE) 20:14:21 437.485
CUBESAT XI-V 01 Apr 20:15:16 20:19:27 34° 289° (WNW) 20:23:34 437.345
CUSAT 1 01 Apr 20:16:37 20:18:29 17° 95° (E) 20:20:21 437.405
HO-68 01 Apr 20:19:55 20:26:51 56° 69° (ENE) 20:33:52 435.675
COMPASS 1 01 Apr 20:24:38 20:28:01 25° 69° (ENE) 20:31:30 437.405
SO-50 01 Apr 20:39:17 20:40:55 11° 327° (NNW) 20:42:24 436.795
Oscar 11 01 Apr 20:47:25 20:50:27 19° 67° (ENE) 20:53:35 145.826/435.025
DELFI C3 01 Apr 20:48:23 20:50:29 14° 66° (ENE) 20:52:45 145.870
STRAND 1 01 Apr 20:51:19 20:55:56 34° 291° (WNW) 21:00:28 437.568
DOVE 4 01 Apr 20:53:35 20:57:48 61° 75° (ENE) 21:01:55 437.250
BRITE-PL 01 Apr 20:53:57 20:58:30 55° 260° (W) 21:02:46 437.365/2234.400
GONETS M04 01 Apr 20:55:20 21:03:15 36° 290° (WNW) 21:11:05
CANX-2 01 Apr 21:05:18 21:09:32 70° 258° (WSW) 21:13:48 2200.000
FUNcube-1 01 Apr 21:06:03 21:08:18 15° 66° (ENE) 21:10:45 145.935
PRISM 01 Apr 21:10:51 21:12:07 11° 297° (WNW) 21:13:10 437.425
CUTE 1.7 + AOD 2 01 Apr 21:18:47 21:22:56 53° 261° (W) 21:27:08 437.475
UWE-3 01 Apr 21:18:48 21:22:11 25° 69° (ENE) 21:25:39 435.000/436.395/437.385
ZACube-1 01 Apr 21:19:28 21:22:33 21° 68° (ENE) 21:25:44 437.345
GOMX 1 01 Apr 21:22:27 21:26:38 40° 262° (W) 21:30:38 467.674
DANDE 01 Apr 21:27:47 21:30:29 38° 281° (WNW) 21:32:58 436.750
AAUSAT CUBESAT 2 01 Apr 21:29:06 21:33:16 70° 258° (WSW) 21:37:29 437.432
CUBEBUG 2 01 Apr 21:31:00 21:34:54 42° 72° (ENE) 21:38:51 437.445
VELOX 1 01 Apr 21:31:39 21:32:19 10° 62° (ENE) 21:33:15 145.980
AISAT 01 Apr 21:36:48 21:38:34 13° 64° (ENE) 21:40:33 437.250
HUMSAT D 01 Apr 21:41:28 21:44:15 18° 67° (ENE) 21:47:10 437.325/437.525
SEEDS 01 Apr 21:42:56 21:46:47 34° 264° (W) 21:50:39 437.485
CINEMA 3 01 Apr 21:43:23 21:47:33 71° 259° (WSW) 21:51:42 145.822/145.860
50 SAT 01 Apr 21:46:19 21:48:03 13° 66° (ENE) 21:49:58 437.505
UKube-1 01 Apr 21:54:06 21:58:07 39° 71° (ENE) 22:02:11 .
COMPASS 1 01 Apr 22:00:03 22:03:40 27° 266° (W) 22:07:14 437.405
ISS 01 Apr 22:02:24 22:05:39 86° 320° (NW) 22:08:56 145.825
HO-68 01 Apr 22:08:58 22:15:00 27° 267° (W) 22:20:52 435.675
DX 1 01 Apr 22:08:59 22:13:17 61° 74° (ENE) 22:17:36 434.975-435.025
PCSat 01 Apr 22:14:29 22:18:33 21° 45° (NE) 22:22:43 145.827
ESTCUBE 1 01 Apr 22:17:32 22:20:26 18° 66° (ENE) 22:23:31 437.505/2401.250
DELFI C3 01 Apr 22:21:21 22:25:18 48° 261° (W) 22:29:17 145.870
Oscar 11 01 Apr 22:22:21 22:26:23 38° 263° (W) 22:30:26 145.826/435.025
RS-15 01 Apr 22:24:46 22:33:18 24° 340° (NNW) 22:41:52 29.354- 29.394
ANTELSAT 01 Apr 22:25:40 22:27:59 14° 89° (E) 22:30:33 437.575/2403.000
DOVE 4 01 Apr 22:35:19 22:36:04 10° 272° (W) 22:36:33 437.250
FUNcube-1 01 Apr 22:40:20 22:44:19 46° 261° (W) 22:48:21 145.935
CUBEBUG 1 01 Apr 22:53:23 22:57:21 35° 71° (ENE) 23:01:21 437.445
ZACube-1 01 Apr 22:55:04 22:58:47 31° 264° (W) 23:02:29 437.345
UWE-3 01 Apr 22:55:14 22:58:42 25° 266° (W) 23:02:08 435.000/436.395/437.385
YUBILEINY 01 Apr 22:55:49 23:00:05 15° 56° (NE) 23:04:54 435.215
VELOX 1 01 Apr 23:03:53 23:08:20 80° 257° (WSW) 23:12:47 145.980
CUBEBUG 2 01 Apr 23:09:25 23:11:54 15° 270° (W) 23:14:14 437.445
AISAT 01 Apr 23:10:17 23:14:42 66° 258° (WSW) 23:19:07 437.250
DUCHIFAT 1 01 Apr 23:13:28 23:16:35 20° 93° (E) 23:19:49 145.980
QB50P1 01 Apr 23:13:47 23:17:00 21° 93° (E) 23:20:17 145.935-145.965
HUMSAT D 01 Apr 23:16:01 23:19:48 35° 263° (W) 23:23:37 437.325/437.525
50 SAT 01 Apr 23:18:48 23:22:35 48° 261° (W) 23:26:25 437.505
UNISAT 6 01 Apr 23:19:51 23:24:22 52° 99° (E) 23:28:57 437.425
TIGRISAT 01 Apr 23:28:16 23:32:51 63° 101° (E) 23:37:29 435.000
QB50P2 01 Apr 23:29:31 23:33:20 32° 96° (E) 23:37:12 145.880/145.840
UKube-1 01 Apr 23:31:24 23:34:28 18° 268° (W) 23:37:24 .
BUGSAT 1 01 Apr 23:36:46 23:40:08 26° 95° (E) 23:43:33 437.445
ISS 01 Apr 23:40:04 23:42:27 18° 342° (NNW) 23:44:49 145.825
DX 1 01 Apr 23:48:19 23:50:01 12° 271° (W) 23:51:28 434.975-435.025
ESTCUBE 1 01 Apr 23:52:36 23:57:00 47° 261° (W) 00:01:24 437.505/2401.250
PCSat 01 Apr 23:57:06 00:02:29 64° 245° (WSW) 00:07:49 145.827
POPSAT HIP 1 01 Apr 23:57:08 00:01:22 66° 101° (E) 00:05:35 437.405
TISAT 1 01 Apr 23:59:21 00:03:15 38° 72° (ENE) 00:07:12 437.305
ANTELSAT 02 Apr 00:00:38 00:05:12 58° 285° (WNW) 00:09:48 437.575/2403.000
NANOSAT C BR1 02 Apr 00:06:07 00:10:22 84° 103° (ESE) 00:14:36 145.865
POLYITAN 1 02 Apr 00:13:51 00:18:07 78° 284° (WNW) 00:22:22 437.675
SPROUT 02 Apr 00:23:21 00:27:38 87° 77° (ENE) 00:31:56 437.525
CUBEBUG 1 02 Apr 00:30:28 00:33:51 21° 267° (W) 00:37:07 437.445
RS-15 02 Apr 00:42:51 00:51:04 22° 16° (NNE) 00:59:43 29.354- 29.394
DUCHIFAT 1 02 Apr 00:48:44 00:52:31 32° 289° (WNW) 00:56:17 145.980
QB50P1 02 Apr 00:49:10 00:52:57 31° 289° (WNW) 00:56:41 145.935-145.965
YUBILEINY 02 Apr 00:50:03 00:58:54 74° 80° (E) 01:07:39 435.215
SWISSCUBE 02 Apr 00:54:34 00:58:39 29° 69° (ENE) 01:02:50 437.505
BEESAT 02 Apr 00:56:53 01:00:56 28° 68° (ENE) 01:05:04 436.000
UNISAT 6 02 Apr 00:57:48 01:00:48 17° 294° (WNW) 01:03:40 437.425
QB50P2 02 Apr 01:05:49 01:09:06 21° 292° (WNW) 01:12:16 145.880/145.840
TIGRISAT 02 Apr 01:06:38 01:09:10 14° 295° (WNW) 01:11:30 435.000
BUGSAT 1 02 Apr 01:12:17 01:15:34 24° 291° (WNW) 01:18:45 437.445
ISS 02 Apr 01:18:24 01:19:49 12° 2° (N) 01:21:14 145.825
POPSAT HIP 1 02 Apr 01:35:17 01:36:46 11° 296° (WNW) 01:38:04 437.405
TISAT 1 02 Apr 01:36:25 01:39:16 17° 268° (W) 01:41:58 437.305
KKS-1 02 Apr 01:41:32 01:43:54 15° 64° (ENE) 01:46:26 437.445
ITUPSAT 1 02 Apr 01:45:22 01:50:10 85° 79° (E) 01:55:02 437.325
SO-50 02 Apr 01:46:46 01:50:12 19° 40° (NE) 01:53:43 436.795
Oscar 19 02 Apr 01:52:34 01:57:14 34° 96° (E) 02:01:57 437.125/150
STARS 02 Apr 02:04:05 02:06:40 16° 65° (ENE) 02:09:27 437.465
SWISSCUBE 02 Apr 02:32:15 02:36:29 30° 264° (W) 02:40:40 437.505
BEESAT 02 Apr 02:34:28 02:38:43 30° 264° (W) 02:42:57 436.000
Gurwin Techsat 1B 02 Apr 02:39:18 02:43:34 25° 93° (E) 02:47:55 435.225
YUBILEINY 02 Apr 02:48:21 02:54:56 23° 278° (W) 03:01:06 435.215
ISS 02 Apr 02:54:29 02:57:07 22° 22° (NNE) 02:59:45 145.825
RS-15 02 Apr 02:56:00 03:07:04 52° 46° (NE) 03:18:41 29.354- 29.394
O/OREOS (USA 219) 02 Apr 03:02:51 03:06:50 30° 104° (ESE) 03:10:53 437.305
ITAMSAT 1 02 Apr 03:06:29 03:11:33 53° 100° (E) 03:16:37 435.822/435.867
KKS-1 02 Apr 03:15:48 03:20:08 55° 260° (W) 03:24:31 437.445
